Regional Weather Roundup
Issued by NWS

Home | Current Version | Previous Version | Text Only | Print | Product List | Glossary On
Versions: 1 2 3 4 5 6 7 8 9 10 11 12 13 14 15 16 17 18 19 20 21 22 23 24 25 26 27 28 29 30 31 32 33 34 35 36 37 38 39 40 41 42 43 44 45 46 47 48 49 50
000
ASUS43 KTOP 191108
RWRKS

WEATHER ROUNDUP FOR KANSAS
NATIONAL WEATHER SERVICE GOODLAND KS
600 AM CDT SUN APR 19 2015

NOTE:  "FAIR" INDICATES FEW OR NO CLOUDS BELOW 12,000 FEET WITH NO
SIGNIFICANT WEATHER AND/OR OBSTRUCTIONS TO VISIBILITY.

KSZ001>006-013>018-027>032-041>047-191200-
NORTHWEST KANSAS

CITY           SKY/WX    TMP DP  RH WIND       PRES   REMARKS
GOODLAND       CLOUDY    45  44  97 N10       29.90S
HAYS           MOCLDY    48  41  76 N14       29.79R
HILL CITY      RAIN      51  49  92 N12       29.82S FOG
RUSSELL        MOCLDY    48  47  96 N8        29.77R
$$

KSZ061>065-074>080-084>089-191200-
SOUTHWEST KANSAS

CITY           SKY/WX    TMP DP  RH WIND       PRES   REMARKS
DODGE CITY     CLEAR     43  37  79 W13       29.78R
ELKHART          N/A    N/A N/A N/A MISG        N/A
GARDEN CITY    CLEAR     40  38  93 NW13      29.79R WCI  32
GREAT BEND     CLEAR     45  39  81 N3        29.77R
LIBERAL        PTCLDY    41  34  75 W13       29.82F
PRATT          CLEAR     45  43  93 SW7       29.77R
$$

KSZ066>073-081>083-090>101-191200-
SOUTHEAST KANSAS

CITY           SKY/WX    TMP DP  RH WIND       PRES   REMARKS
CHANUTE        CLOUDY    53  53 100 NW6       29.71R
COFFEYVILLE    CLOUDY    54  52  93 CALM      29.71F
HUTCHINSON     MOCLDY    50  47  89 NW6       29.75S FOG
MEDICINE LODGE   N/A     49  48  97 CALM      29.75R
NEWTON         CLOUDY    50  46  87 NW6       29.76S
PARSONS        CLOUDY    54  53  97 CALM      29.72F
WICHITA INTL   CLOUDY    51  49  92 W3        29.73S
WICHITA JABRA  CLOUDY    52  51  97 W5        29.72S
WICHITA MCCONL CLOUDY    52  51  96 W2        29.72S
WINFIELD       CLOUDY    51  51 100 SW5       29.72F
$$

KSZ007>012-019>026-033>040-048>060-102>105-191200-
NORTHEAST KANSAS

CITY           SKY/WX    TMP DP  RH WIND       PRES   REMARKS
CONCORDIA      CLOUDY    52  52 100 NW5       29.77F
EMPORIA        CLOUDY    51  50  96 NW6       29.72R
LAWRENCE       MOCLDY    52  51  97 W6        29.70F
MANHATTAN      CLOUDY    53  51  93 W5        29.74R
MARYSVILLE     CLOUDY    52  52 100 NW6       29.74S
OLATHE IND     MOCLDY    52  51  97 N5        29.69F
OLATHE EXE     CLOUDY    53  52  96 NE8       29.67F
SALINA         CLOUDY    52  49  89 CALM      29.74F
TOPEKA BILLARD CLOUDY    54  53  97 CALM      29.72R
TOPEKA FORBES  CLOUDY    53  51  93 W6        29.71R
$$


USA.gov is the U.S. government's official web portal to all federal, state and local government web resources and services.